RH
56 61 36 34 46 48 30 30 26 20 32 36 54 57 51 48 45 42 39 38 40 47 56 63 87 93 98 89 92 80 96 88 99 88 85 91 94 94 86 64 66 74 71
66 65 64 39 41 36 49 30 30 20 23 33 43 54 49 48 44 36 30 31 36 44 61 68 69 89 94 95 93 95 100 99 99 97 99 97 92 91 66 57 59 64 85
78 78 80 74 40 37 35 40 31 22 20 28 38 53 52 43 36 31 30 35 42 45 56 67 79 95 94 91 84 98 100 100 100 98 89 91 79 71 74 64 55 56 68
92 88 90 82 70 60 55 34 34 31 43 38 58 60 49 43 35 32 69 40 49 64 65 64 70 86 86 86 90 94 99 99 100 99 89 80 83 82 80 68 59 56 82
99 99 99 98 100 98 91 57 45 45 88 78 68 60 52 44 35 36 40 72 73 70 70 76 96 97 93 91 90 98 98 100 100 98 85 80 95 91 90 89 84 71 67
99 100 100 99 99 99 95 99 75 59 95 83 80 84 59 48 42 83 94 82 92 99 100 99 100 99 100 100 98 99 100 100 99 100 100 96 91 94 95 82 75 73 87
98 100 97 100 100 100 100 97 100 98 98 95 88 74 60 67 92 96 98 94 95 94 96 87 92 97 94 98 99 100 100 100 100 99 97 90 88 91 83 76 87 71 84
100 99 97 100 98 98 99 100 100 99 96 97 98 97 95 95 96 98 100 100 100 100 100 93 98 100 100 97 98 93 100 100 100 100 99 90 87 76 75 67 88 98 94
89 80 76 89 92 96 100 100 100 98 100 100 99 98 100 100 99 98 100 96 99 96 93 97 98 100 99 100 100 99 92 92 98 88 87 84 69 77 93 100 99 100 100
72 75 76 80 80 90 77 100 100 100 100 100 100 100 100 94 100 100 100 100 100 100 100 94 98 96 97 98 100 99 96 95 99 99 100 100 99 96 90 82 85 88 94
65 76 70 60 59 63 51 74 76 86 95 99 100 100 100 100 100 100 99 98 96 96 94 93 94 96 100 100 98 98 100 100 100 98 98 95 86 82 86 92 92 98 100
36 56 51 59 53 47 41 45 41 32 34 30 52 52 64 63 75 73 41 31 32 34 34 37 44 50 56 70 86 98 99 100 100 98 99 100 100 99 96 94 97 100 100
51 32 45 51 38 36 33 29 28 25 24 21 20 17 14 12 12 12 11 12 11 10 10 11 11 11 12 14 17 24 40 55 66 82 95 99 100 100 100 100 100 100 100
52 40 35 32 35 34 30 29 22 20 19 18 16 12 11 11 10 9 8 8 7 7 7 7 7 7 7 8 8 9 12 14 16 17 21 28 38 55 72 90 98 99 100
54 50 40 40 32 27 24 22 20 19 18 15 12 11 11 10 9 8 8 9 8 8 9 9 8 8 8 8 8 8 9 10 10 11 14 18 23 28 34 41 48 80 99
53 52 34 36 35 24 21 19 18 16 15 13 12 12 11 10 10 10 10 9 10 11 11 11 10 10 12 15 19 23 23 23 22 18 14 14 18 28 31 34 42 51 100
53 54 40 23 20 17 18 19 17 16 14 12 12 13 14 14 14 14 15 17 16 16 17 18 21 23 27 31 34 40 48 47 44 46 44 32 23 20 31 48 70 69 68
52 53 44 22 21 19 19 19 16 14 14 14 17 20 21 21 20 18 18 21 25 29 31 32 34 32 38 37 46 55 64 82 84 65 71 84 74 78 96 100 98 97 97
53 51 42 21 20 21 21 20 18 18 18 19 22 24 24 23 21 20 19 22 24 19 18 22 28 33 37 45 50 54 62 82 97 95 96 99 100 91 95 95 97 96 96
52 46 31 21 22 23 25 26 25 25 24 23 22 20 21 21 22 22 21 22 24 23 23 30 40 55 65 72 70 98 100 100 99 100 100 100 100 97 99 94 98 99 86
44 38 18 20 21 22 25 28 26 26 24 22 20 19 20 22 22 24 24 25 27 36 38 38 48 55 80 73 72 86 100 100 100 100 100 100 99 100 99 99 99 98 97
34 22 19 21 23 26 28 30 28 26 23 21 22 23 22 20 21 25 32 40 41 39 47 46 46 64 71 84 86 99 100 100 100 98 99 100 99 100 100 98 78 98 98
29 20 21 25 26 28 30 29 25 22 20 19 22 22 20 22 26 30 32 36 47 60 66 69 59 51 61 70 96 100 100 98 99 98 98 98 98 99 100 98 98 99 99
32 23 22 24 26 27 27 26 24 22 22 25 22 20 22 24 32 33 32 33 51 67 86 99 99 99 100 100 100 100 99 99 100 99 100 100 99 98 100 94 88 97 100
37 29 24 24 26 28 30 30 27 24 26 28 25 22 21 23 24 29 36 41 66 98 100 100 100 100 99 100 100 100 100 100 100 99 99 99 99 99 100 99 99 96 91
41 33 28 27 29 30 29 25 24 25 28 27 25 25 26 28 31 30 30 55 56 68 72 83 100 100 98 100 100 100 94 89 97 98 99 99 98 99 99 92 98 99 96
Wind_Speed
24 21 20 22 25 26 32 31 30 35 30 27 27 27 28 26 26 25 25 25 26 27 29 29 26 26 31 36 35 37 38 39 39 33 35 39 28 28 28 30 30 28 29
27 22 19 20 22 27 26 31 28 31 31 29 27 28 27 26 24 26 27 28 29 30 32 32 32 30 31 33 34 38 37 39 42 42 31 24 29 26 34 37 37 33 26
24 21 18 16 17 24 28 27 29 28 30 30 26 28 27 27 27 27 27 27 27 31 34 34 35 33 36 39 38 40 41 40 41 40 33 17 22 21 19 28 35 36 36
13 12 12 9 9 13 20 26 24 26 26 28 27 28 27 25 24 25 22 24 28 30 33 37 38 38 40 42 42 41 47 41 38 41 46 43 25 15 14 20 21 26 32
17 14 12 11 4 6 11 14 19 21 19 23 26 25 25 23 23 25 27 27 30 34 37 40 34 34 37 41 43 42 42 47 46 46 48 44 45 40 31 20 19 20 27
18 19 11 11 10 4 7 11 18 21 20 23 22 19 18 17 17 19 22 23 23 23 22 20 22 26 29 34 37 37 45 53 42 45 40 40 34 34 38 36 41 36 34
24 23 23 21 20 16 8 8 12 15 17 17 16 13 14 14 15 14 10 7 5 6 8 15 23 28 24 32 42 40 37 40 38 40 41 38 40 36 32 30 37 41 39
20 24 24 25 27 20 5 5 9 13 15 16 14 12 14 15 13 11 10 5 4 1 5 7 8 15 23 28 31 30 37 42 38 38 35 34 35 39 43 43 45 36 37
15 19 21 24 23 24 24 15 13 12 11 11 12 16 16 16 16 19 14 11 7 7 6 3 1 1 6 6 15 21 21 28 34 36 36 39 40 38 38 36 33 34 31
14 15 15 16 19 22 25 23 25 16 12 14 15 18 20 17 17 16 14 11 8 7 6 5 7 7 5 4 9 15 18 21 28 33 31 34 40 42 45 48 45 40 39
11 11 12 13 14 14 18 20 24 22 19 19 14 16 16 12 11 6 7 4 4 7 7 6 6 8 9 9 13 17 19 21 23 29 34 37 39 42 47 49 50 47 45
11 10 11 11 12 11 11 16 18 18 18 17 12 13 11 7 3 1 2 3 4 7 7 8 9 11 10 12 15 16 17 22 25 26 27 31 37 44 43 45 49 51 52
4 8 6 7 8 9 11 13 14 16 15 12 12 12 11 8 7 7 6 6 6 8 10 11 11 12 13 14 16 19 22 25 27 29 30 31 31 33 32 31 36 50 56
5 4 5 7 7 8 9 10 10 12 13 12 13 12 12 11 10 10 9 10 11 11 11 12 13 14 16 18 20 22 23 25 28 30 32 34 36 38 39 39 39 43 41
6 5 3 4 6 7 7 8 9 10 11 10 10 11 11 11 11 11 11 11 12 13 13 14 14 15 16 18 21 23 25 28 30 31 32 33 34 36 37 39 43 43 38
8 6 4 3 3 5 5 6 7 8 9 10 11 11 12 12 12 13 14 15 15 16 17 17 18 18 17 17 19 21 23 25 27 29 30 32 33 33 36 38 38 40 37
9 8 6 5 4 4 3 4 5 7 9 11 11 12 12 12 13 15 17 18 20 21 21 21 22 22 22 24 24 21 19 20 21 24 28 30 32 36 37 36 36 36 38
13 11 8 7 5 5 4 4 5 7 9 11 12 14 15 16 18 19 21 22 22 22 22 23 24 25 25 27 27 27 26 25 24 23 25 27 31 31 32 34 36 37 37
13 13 11 8 7 7 6 4 5 7 9 12 14 15 16 17 18 19 20 21 21 21 21 22 23 24 23 24 24 25 26 27 27 27 25 24 27 29 30 30 33 37 38
15 14 11 9 9 9 8 6 6 8 10 12 14 15 16 17 17 18 19 19 19 19 19 20 22 21 20 21 23 22 24 26 26 27 28 26 28 29 29 33 33 38 38
15 14 13 12 12 11 8 6 7 9 11 13 15 16 17 17 17 18 18 18 18 18 18 19 21 21 22 23 25 24 26 28 32 33 34 34 33 32 31 28 34 35 34
17 15 15 14 13 11 8 7 7 9 12 14 16 17 17 17 17 17 17 16 16 18 19 21 23 22 24 26 27 27 27 28 32 36 38 38 37 34 34 32 30 30 31
16 16 15 15 13 11 9 9 9 10 13 14 16 17 16 15 15 15 16 16 17 18 20 21 25 27 28 30 31 30 31 33 34 35 37 36 35 34 32 29 27 26 28
20 18 18 17 14 12 11 10 11 12 12 12 14 15 15 14 14 14 16 18 19 20 20 22 25 28 31 31 33 37 37 38 38 38 37 37 35 33 33 31 28 28 25
22 21 19 17 15 13 12 12 11 11 12 13 14 15 15 15 16 16 17 17 17 17 20 21 25 29 29 29 32 34 38 37 34 35 34 32 31 29 29 22 23 23 25
24 22 20 18 16 14 13 12 12 12 12 13 13 14 15 16 16 17 18 18 19 21 18 17 19 25 26 27 31 34 33 32 26 31 28 26 25 25 23 18 21 20 19
Wind_Direction
299 292 295 296 256 244 244 243 242 233 229 232 233 233 237 242 248 255 261 265 264 261 260 260 257 252 249 253 253 256 253 256 245 240 245 244 247 251 252 255 252 249 248
305 298 292 293 268 245 245 243 241 235 228 230 233 236 238 243 250 256 261 264 263 262 262 258 259 255 255 253 252 254 247 252 244 238 236 245 245 254 262 259 257 256 247
308 307 300 283 269 247 244 244 242 235 229 228 233 233 236 243 250 256 261 264 264 262 263 268 265 260 261 260 258 251 252 244 237 239 224 238 245 250 250 256 256 260 253
345 354 342 311 283 268 257 244 239 238 229 224 227 231 238 245 256 267 266 268 270 270 271 276 276 270 261 260 261 256 252 245 239 230 225 226 237 222 235 247 259 261 248
5 32 28 12 330 259 246 235 234 232 223 222 226 232 241 251 258 267 275 282 286 284 277 275 272 270 261 257 259 258 248 240 233 238 232 231 237 242 255 257 264 268 266
12 29 31 38 20 318 235 229 221 219 215 218 223 231 248 257 265 270 281 291 292 287 275 273 269 264 263 258 259 261 240 230 240 235 225 222 228 238 241 252 263 263 268
29 26 24 36 34 10 325 245 224 213 214 216 222 236 246 246 254 266 277 283 285 318 295 285 271 266 264 258 250 249 247 248 229 231 234 240 240 240 249 258 262 266 264
27 25 25 25 40 22 23 114 163 200 206 206 216 217 222 230 237 242 228 197 175 104 335 309 328 283 254 258 255 254 252 242 241 237 233 239 243 241 246 251 258 255 259
14 15 14 20 24 28 46 86 123 155 191 205 214 213 212 212 223 224 232 243 260 270 287 312 322 302 316 262 247 234 254 253 248 246 241 240 242 242 247 252 262 259 253
2 9 8 13 22 20 38 63 87 113 140 173 201 202 206 214 198 195 197 217 238 264 257 298 301 317 293 264 269 262 261 265 251 242 244 248 246 251 254 256 260 261 258
357 6 9 26 35 18 40 52 69 77 81 95 114 138 143 145 150 168 209 213 273 267 294 292 283 294 296 274 253 254 257 263 268 261 255 261 262 263 263 263 264 261 257
345 354 6 18 38 48 39 54 68 73 80 70 62 68 79 84 72 74 42 15 320 313 311 310 303 295 289 278 266 267 262 261 257 255 258 261 268 265 263 263 263 260 260
329 345 3 26 30 35 48 58 61 71 74 82 84 81 79 77 63 49 24 12 353 340 334 327 319 310 301 296 288 281 277 274 271 268 267 263 258 260 258 262 267 258 256
296 330 346 11 31 42 53 60 61 63 61 54 54 53 48 40 32 22 7 354 345 338 329 321 316 313 310 307 304 300 295 290 287 284 281 279 278 279 278 277 280 280 274
242 282 312 341 19 30 42 47 52 52 54 52 45 38 32 23 12 1 355 353 347 340 334 329 324 320 316 310 306 303 300 299 297 295 293 292 289 286 285 283 278 275 276
234 268 309 343 354 6 18 30 33 31 33 29 26 22 15 8 3 359 355 351 350 349 345 340 337 333 327 322 321 313 308 305 303 301 296 293 291 291 287 285 281 275 275
237 252 276 292 304 325 356 12 17 16 14 12 9 6 5 4 1 357 356 355 352 351 349 346 342 338 333 332 331 323 311 304 296 292 291 289 288 288 290 288 286 280 270
237 242 255 263 275 296 315 340 354 358 0 359 358 360 2 360 357 354 352 351 352 351 349 344 339 334 331 327 327 324 321 315 309 301 295 294 293 291 298 301 302 289 278
238 239 247 253 266 275 281 301 331 347 351 354 355 355 353 351 347 344 343 345 344 340 337 332 325 320 319 318 318 316 315 311 307 305 300 292 287 285 293 299 297 298 289
233 234 245 252 261 270 278 303 326 337 343 346 347 344 341 338 336 336 334 335 334 333 331 325 323 325 323 321 324 325 317 309 305 304 301 297 298 298 292 281 289 293 289
226 231 238 244 248 254 265 291 313 327 331 335 336 336 333 331 330 330 328 331 333 334 332 327 325 330 328 327 330 329 322 316 313 311 309 310 306 298 297 289 279 284 288
223 231 235 242 248 255 270 288 302 313 322 327 331 331 329 326 326 327 327 332 333 334 334 332 328 334 334 330 332 329 321 318 312 310 310 310 311 307 298 291 277 285 283
232 238 241 245 250 260 272 284 294 303 313 324 328 327 326 325 324 324 325 332 338 340 336 336 335 331 334 333 333 326 324 320 313 309 305 304 303 300 299 290 281 285 282
234 238 239 244 249 256 265 275 286 297 307 318 321 325 326 326 323 325 327 332 335 337 335 330 326 322 323 324 325 325 323 323 319 315 312 309 303 298 292 293 293 285 283
235 235 238 241 246 253 264 274 284 298 310 317 320 327 331 332 331 332 332 334 335 328 317 317 319 316 313 320 319 321 321 319 318 317 313 312 307 301 295 293 300 289 288
233 235 239 242 248 255 265 275 286 292 297 303 314 324 330 333 333 331 331 333 334 331 333 326 312 314 314 314 319 327 325 328 329 326 320 317 310 303 296 296 305 299 286